| time (UTC) | temp C | wind direction | speed KPH | gust KPH | rain 1hr cm | rain 24hr cm | rain mn cm | humidity % | barometer mb |
| 20260505083625 | 4 | 156 | 0.0 | 9.7 | 0.00 | 0.00 | 0.00 | 61 | 1009.2 |
| 20260505083121 | 4 | 236 | 4.8 | 8.0 | 0.00 | 0.00 | 0.00 | 60 | 1009.5 |
| 20260505082616 | 5 | 246 | 1.6 | 9.7 | 0.00 | 0.00 | 0.00 | 60 | 1009.4 |
| 20260505070827 | 5 | 215 | 3.2 | 4.8 | 0.00 | 0.00 | 0.00 | 56 | 1008.8 |
| 20260505070323 | 5 | 215 | 3.2 | 4.8 | 0.00 | 0.00 | 0.00 | 56 | 1008.8 |
| 20260505065819 | 5 | 245 | 4.8 | 11.3 | 0.00 | 0.00 | 0.00 | 55 | 1008.9 |
| 20260505065316 | 5 | 257 | 11.3 | 17.7 | 0.00 | 0.00 | 0.00 | 55 | 1008.8 |
| 20260505064813 | 5 | 224 | 4.8 | 16.1 | 0.00 | 0.00 | 0.00 | 55 | 1009.0 |
| 20260505064310 | 6 | 213 | 4.8 | 12.9 | 0.00 | 0.00 | 0.00 | 55 | 1009.0 |
| 20260505063808 | 6 | 222 | 8.0 | 16.1 | 0.00 | 0.00 | 0.00 | 55 | 1008.9 |
| 20260505063304 | 6 | 233 | 1.6 | 14.5 | 0.00 | 0.00 | 0.00 | 56 | 1009.1 |
| 20260505062800 | 6 | 199 | 4.8 | 9.7 | 0.00 | 0.00 | 0.00 | 56 | 1008.7 |
| 20260505062258 | 6 | 271 | 4.8 | 9.7 | 0.00 | 0.00 | 0.00 | 56 | 1009.0 |
| 20260505061754 | 6 | 232 | 3.2 | 14.5 | 0.00 | 0.00 | 0.00 | 54 | 1009.0 |
| 20260505061253 | 6 | 245 | 11.3 | 17.7 | 0.00 | 0.00 | 0.00 | 55 | 1009.1 |
| 20260505060750 | 6 | 216 | 3.2 | 12.9 | 0.00 | 0.00 | 0.00 | 55 | 1009.1 |
| 20260505060247 | 6 | 216 | 3.2 | 11.3 | 0.00 | 0.00 | 0.00 | 54 | 1009.1 |
| 20260505055742 | 6 | 197 | 9.7 | 12.9 | 0.00 | 0.00 | 0.00 | 54 | 1008.8 |
| 20260505055238 | 6 | 236 | 4.8 | 8.0 | 0.00 | 0.00 | 0.00 | 54 | 1009.1 |
| 20260505054736 | 6 | 238 | 4.8 | 16.1 | 0.00 | 0.00 | 0.00 | 54 | 1009.0 |
| 20260505054233 | 6 | 261 | 6.4 | 12.9 | 0.00 | 0.00 | 0.00 | 54 | 1009.0 |
| 20260505053732 | 6 | 233 | 4.8 | 9.7 | 0.00 | 0.00 | 0.00 | 54 | 1008.8 |
| 20260505053222 | 6 | 260 | 6.4 | 17.7 | 0.00 | 0.00 | 0.00 | 54 | 1008.6 |
| 20260505052719 | 6 | 173 | 1.6 | 8.0 | 0.00 | 0.00 | 0.00 | 55 | 1008.6 |
| 20260505052216 | 6 | 220 | 1.6 | 8.0 | 0.00 | 0.00 | 0.00 | 54 | 1008.8 |
| 20260505051713 | 6 | 244 | 4.8 | 8.0 | 0.00 | 0.00 | 0.00 | 54 | 1008.7 |
| 20260505051211 | 6 | 264 | 11.3 | 14.5 | 0.00 | 0.00 | 0.00 | 54 | 1008.8 |
| 20260505050709 | 7 | 255 | 4.8 | 8.0 | 0.00 | 0.00 | 0.00 | 54 | 1008.6 |
| 20260505050207 | 7 | 201 | 4.8 | 12.9 | 0.00 | 0.00 | 0.00 | 54 | 1008.4 |
| 20260505041631 | 6 | 214 | 0.0 | 1.6 | 0.00 | 0.00 | 0.00 | 56 | 1008.4 |
| 20260505041128 | 7 | 244 | 1.6 | 4.8 | 0.00 | 0.00 | 0.00 | 55 | 1008.6 |
| 20260505040625 | 7 | 193 | 0.0 | 3.2 | 0.00 | 0.00 | 0.00 | 54 | 1008.7 |
| 20260505040122 | 7 | 199 | 3.2 | 4.8 | 0.00 | 0.00 | 0.00 | 53 | 1008.4 |
| 20260505035619 | 7 | 247 | 4.8 | 8.0 | 0.00 | 0.00 | 0.00 | 52 | 1008.4 |
| 20260505035115 | 7 | 234 | 8.0 | 12.9 | 0.00 | 0.00 | 0.00 | 51 | 1008.3 |
| 20260505034612 | 7 | 221 | 4.8 | 11.3 | 0.00 | 0.00 | 0.00 | 52 | 1008.4 |
| 20260505034109 | 7 | 229 | 3.2 | 8.0 | 0.00 | 0.00 | 0.00 | 51 | 1008.2 |
| 20260505033605 | 7 | 249 | 4.8 | 9.7 | 0.00 | 0.00 | 0.00 | 51 | 1008.4 |
| 20260505033104 | 7 | 190 | 11.3 | 14.5 | 0.00 | 0.00 | 0.00 | 51 | 1008.3 |
| 20260505032601 | 7 | 260 | 3.2 | 4.8 | 0.00 | 0.00 | 0.00 | 51 | 1008.4 |
| 20260505032057 | 7 | 205 | 1.6 | 8.0 | 0.00 | 0.00 | 0.00 | 50 | 1008.4 |
| 20260505031555 | 7 | 186 | 1.6 | 9.7 | 0.00 | 0.00 | 0.00 | 49 | 1008.4 |
| 20260505031051 | 7 | 246 | 1.6 | 4.8 | 0.00 | 0.00 | 0.00 | 50 | 1008.3 |
| 20260505030548 | 7 | 212 | 1.6 | 11.3 | 0.00 | 0.00 | 0.00 | 49 | 1008.6 |
| 20260505030044 | 7 | 231 | 4.8 | 4.8 | 0.00 | 0.00 | 0.00 | 49 | 1008.4 |
| 20260505025540 | 7 | 196 | 4.8 | 11.3 | 0.00 | 0.00 | 0.00 | 49 | 1008.3 |
| 20260505025039 | 7 | 204 | 6.4 | 12.9 | 0.00 | 0.00 | 0.00 | 49 | 1008.3 |
| 20260505024536 | 7 | 221 | 6.4 | 11.3 | 0.00 | 0.00 | 0.00 | 48 | 1008.3 |
| 20260505024033 | 7 | 180 | 1.6 | 8.0 | 0.00 | 0.00 | 0.00 | 49 | 1008.1 |
| 20260505023530 | 7 | 230 | 3.2 | 8.0 | 0.00 | 0.00 | 0.00 | 48 | 1008.0 |
| 20260505023028 | 7 | 250 | 4.8 | 9.7 | 0.00 | 0.00 | 0.00 | 48 | 1007.9 |
| 20260505022525 | 7 | 202 | 4.8 | 9.7 | 0.00 | 0.00 | 0.00 | 47 | 1008.0 |
| 20260505022022 | 8 | 236 | 1.6 | 3.2 | 0.00 | 0.00 | 0.00 | 48 | 1007.7 |
| 20260505021518 | 8 | 241 | 4.8 | 9.7 | 0.00 | 0.00 | 0.00 | 47 | 1007.6 |
| 20260505021015 | 8 | 229 | 6.4 | 11.3 | 0.00 | 0.00 | 0.00 | 47 | 1007.8 |
| 20260505020515 | 8 | 264 | 3.2 | 9.7 | 0.00 | 0.00 | 0.00 | 46 | 1007.6 |
| 20260505020012 | 8 | 243 | 4.8 | 11.3 | 0.00 | 0.00 | 0.00 | 46 | 1007.6 |
| 20260505015509 | 8 | 204 | 4.8 | 17.7 | 0.00 | 0.00 | 0.00 | 46 | 1007.6 |
| 20260505015006 | 8 | 203 | 6.4 | 9.7 | 0.00 | 0.00 | 0.00 | 46 | 1007.6 |
| 20260505014503 | 8 | 259 | 1.6 | 8.0 | 0.00 | 0.00 | 0.00 | 46 | 1007.5 |
| 20260505014000 | 8 | 234 | 4.8 | 20.9 | 0.00 | 0.00 | 0.00 | 46 | 1007.5 |
| 20260505013457 | 8 | 214 | 6.4 | 17.7 | 0.00 | 0.00 | 0.00 | 46 | 1007.2 |
| 20260505012954 | 8 | 181 | 4.8 | 17.7 | 0.00 | 0.00 | 0.00 | 46 | 1007.4 |
| 20260505012452 | 8 | 246 | 8.0 | 12.9 | 0.00 | 0.00 | 0.00 | 46 | 1007.1 |
| 20260505011949 | 8 | 228 | 9.7 | 22.5 | 0.00 | 0.00 | 0.00 | 47 | 1007.1 |
| 20260505011445 | 8 | 226 | 4.8 | 14.5 | 0.00 | 0.00 | 0.00 | 47 | 1006.8 |
| 20260505010942 | 9 | 238 | 6.4 | 17.7 | 0.00 | 0.00 | 0.00 | 46 | 1006.6 |
| 20260505010438 | 9 | 256 | 16.1 | 24.1 | 0.00 | 0.00 | 0.00 | 46 | 1006.6 |
| 20260505005934 | 9 | 246 | 17.7 | 24.1 | 0.00 | 0.00 | 0.00 | 46 | 1006.6 |
| 20260505005431 | 10 | 238 | 4.8 | 14.5 | 0.00 | 0.00 | 0.00 | 46 | 1006.5 |
| 20260505004929 | 10 | 220 | 8.0 | 20.9 | 0.00 | 0.00 | 0.00 | 46 | 1006.3 |
| 20260505004425 | 10 | 222 | 4.8 | 25.7 | 0.00 | 0.00 | 0.00 | 45 | 1006.2 |
| 20260505003922 | 10 | 229 | 4.8 | 16.1 | 0.00 | 0.00 | 0.00 | 45 | 1006.2 |
| 20260505003419 | 10 | 252 | 9.7 | 14.5 | 0.00 | 0.00 | 0.00 | 44 | 1006.2 |
| 20260505002915 | 10 | 269 | 6.4 | 14.5 | 0.00 | 0.00 | 0.00 | 44 | 1006.0 |
| 20260505002412 | 10 | 245 | 12.9 | 14.5 | 0.00 | 0.00 | 0.00 | 44 | 1006.0 |
| 20260505001910 | 10 | 223 | 8.0 | 22.5 | 0.00 | 0.00 | 0.00 | 44 | 1006.0 |
| 20260505001407 | 11 | 236 | 9.7 | 17.7 | 0.00 | 0.00 | 0.00 | 44 | 1005.9 |
| 20260505000904 | 11 | 180 | 9.7 | 14.5 | 0.00 | 0.00 | 0.00 | 44 | 1005.8 |
| 20260505000402 | 11 | 255 | 6.4 | 16.1 | 0.00 | 0.00 | 0.00 | 44 | 1005.8 |
| 20260504235858 | 11 | 172 | 8.0 | 14.5 | 0.00 | 0.00 | 0.00 | 44 | 1005.6 |
| 20260504235356 | 11 | 235 | 11.3 | 20.9 | 0.00 | 0.00 | 0.00 | 44 | 1005.7 |
| 20260504234852 | 11 | 250 | 9.7 | 14.5 | 0.00 | 0.00 | 0.00 | 44 | 1005.5 |
| 20260504234350 | 11 | 167 | 4.8 | 17.7 | 0.00 | 0.00 | 0.00 | 44 | 1005.6 |
| 20260504233846 | 11 | 284 | 11.3 | 17.7 | 0.00 | 0.00 | 0.00 | 44 | 1005.7 |
| 20260504233341 | 11 | 287 | 8.0 | 12.9 | 0.00 | 0.00 | 0.00 | 44 | 1005.3 |
| 20260504232839 | 11 | 219 | 14.5 | 17.7 | 0.00 | 0.00 | 0.00 | 44 | 1005.4 |
| 20260504232336 | 11 | 241 | 14.5 | 25.7 | 0.00 | 0.00 | 0.00 | 44 | 1005.2 |
| 20260504231832 | 11 | 275 | 14.5 | 24.1 | 0.00 | 0.00 | 0.00 | 44 | 1005.3 |
| 20260504231329 | 11 | 229 | 12.9 | 20.9 | 0.00 | 0.00 | 0.00 | 45 | 1005.2 |
| 20260504230825 | 11 | 199 | 14.5 | 27.4 | 0.00 | 0.00 | 0.00 | 45 | 1005.2 |
| 20260504230323 | 11 | 222 | 14.5 | 20.9 | 0.00 | 0.00 | 0.00 | 45 | 1005.2 |
| 20260504225822 | 11 | 233 | 9.7 | 24.1 | 0.00 | 0.00 | 0.00 | 45 | 1005.0 |
| 20260504225317 | 11 | 241 | 4.8 | 16.1 | 0.00 | 0.00 | 0.00 | 46 | 1005.0 |
| 20260504224815 | 12 | 118 | 4.8 | 14.5 | 0.00 | 0.00 | 0.00 | 46 | 1004.7 |
| 20260504224312 | 12 | 216 | 19.3 | 27.4 | 0.00 | 0.00 | 0.00 | 45 | 1004.8 |
| 20260504223809 | 12 | 140 | 4.8 | 24.1 | 0.00 | 0.00 | 0.00 | 45 | 1004.6 |
| 20260504223304 | 12 | 207 | 8.0 | 25.7 | 0.00 | 0.00 | 0.00 | 44 | 1004.4 |
| 20260504222801 | 12 | 229 | 14.5 | 22.5 | 0.00 | 0.00 | 0.00 | 44 | 1004.4 |
| 20260504222258 | 12 | 223 | 17.7 | 20.9 | 0.00 | 0.00 | 0.00 | 44 | 1004.4 |
| 20260504221756 | 12 | 302 | 8.0 | 17.7 | 0.00 | 0.00 | 0.00 | 44 | 1004.1 |
| 20260504221253 | 13 | 182 | 11.3 | 24.1 | 0.00 | 0.00 | 0.00 | 43 | 1004.1 |
| 20260504220749 | 13 | 245 | 3.2 | 14.5 | 0.00 | 0.00 | 0.00 | 43 | 1004.0 |
| 20260504220246 | 13 | 225 | 8.0 | 27.4 | 0.00 | 0.00 | 0.00 | 43 | 1003.7 |
| 20260504215744 | 13 | 207 | 9.7 | 16.1 | 0.00 | 0.00 | 0.00 | 43 | 1003.8 |
| 20260504215240 | 13 | 260 | 8.0 | 17.7 | 0.00 | 0.00 | 0.00 | 44 | 1003.9 |
| 20260504214736 | 13 | 279 | 8.0 | 22.5 | 0.00 | 0.00 | 0.00 | 44 | 1003.6 |
| 20260504214233 | 13 | 281 | 9.7 | 27.4 | 0.00 | 0.00 | 0.00 | 44 | 1003.7 |
| 20260504213729 | 13 | 270 | 8.0 | 17.7 | 0.00 | 0.00 | 0.00 | 44 | 1003.5 |
| 20260504213225 | 13 | 230 | 6.4 | 25.7 | 0.00 | 0.00 | 0.00 | 42 | 1003.3 |
| 20260504212722 | 14 | 262 | 19.3 | 24.1 | 0.00 | 0.00 | 0.00 | 39 | 1003.3 |
| 20260504212214 | 15 | 220 | 17.7 | 22.5 | 0.00 | 0.00 | 0.00 | 41 | 1003.1 |
| 20260504211711 | 15 | 237 | 11.3 | 14.5 | 0.00 | 0.00 | 0.00 | 40 | 1003.1 |
| 20260504211207 | 13 | 207 | 14.5 | 38.6 | 0.00 | 0.00 | 0.00 | 42 | 1003.1 |
| 20260504210705 | 14 | 158 | 12.9 | 25.7 | 0.00 | 0.00 | 0.00 | 41 | 1003.2 |
| 20260504210202 | 14 | 232 | 12.9 | 27.4 | 0.00 | 0.00 | 0.00 | 42 | 1003.3 |
| 20260504205659 | 14 | 245 | 8.0 | 16.1 | 0.00 | 0.00 | 0.00 | 43 | 1003.1 |
| 20260504205156 | 15 | 257 | 11.3 | 22.5 | 0.00 | 0.00 | 0.00 | 41 | 1003.0 |
| 20260504204654 | 13 | 131 | 6.4 | 14.5 | 0.00 | 0.00 | 0.00 | 43 | 1003.1 |
| 20260504204153 | 15 | 188 | 20.9 | 27.4 | 0.00 | 0.00 | 0.00 | 41 | 1003.2 |
| 20260504203651 | 15 | 237 | 8.0 | 27.4 | 0.00 | 0.00 | 0.00 | 40 | 1003.0 |
| 20260504203148 | 15 | 242 | 11.3 | 25.7 | 0.00 | 0.00 | 0.00 | 42 | 1003.0 |
| 20260504202643 | 15 | 235 | 12.9 | 25.7 | 0.00 | 0.00 | 0.00 | 42 | 1002.8 |
| 20260504202140 | 15 | 202 | 12.9 | 33.8 | 0.00 | 0.00 | 0.00 | 44 | 1002.8 |
| 20260504201637 | 15 | 125 | 3.2 | 24.1 | 0.00 | 0.00 | 0.00 | 44 | 1002.8 |
| 20260504201135 | 15 | 229 | 11.3 | 22.5 | 0.00 | 0.00 | 0.00 | 44 | 1002.8 |
| 20260504200632 | 15 | 215 | 6.4 | 25.7 | 0.00 | 0.00 | 0.00 | 43 | 1002.6 |
| 20260504200128 | 15 | 154 | 11.3 | 20.9 | 0.00 | 0.00 | 0.00 | 44 | 1002.5 |
| 20260504195624 | 15 | 176 | 4.8 | 27.4 | 0.00 | 0.00 | 0.00 | 44 | 1002.6 |
| 20260504195121 | 15 | 236 | 14.5 | 24.1 | 0.00 | 0.00 | 0.00 | 44 | 1002.7 |
| 20260504194618 | 15 | 296 | 11.3 | 27.4 | 0.00 | 0.00 | 0.00 | 44 | 1002.4 |
| 20260504194113 | 15 | 200 | 9.7 | 25.7 | 0.00 | 0.00 | 0.00 | 44 | 1002.5 |
| 20260504193609 | 16 | 247 | 8.0 | 24.1 | 0.00 | 0.00 | 0.00 | 43 | 1002.4 |
| 20260504193108 | 15 | 234 | 17.7 | 27.4 | 0.00 | 0.00 | 0.00 | 44 | 1002.3 |
| 20260504192606 | 16 | 229 | 12.9 | 27.4 | 0.00 | 0.00 | 0.00 | 44 | 1002.2 |
| 20260504192104 | 16 | 257 | 11.3 | 20.9 | 0.00 | 0.00 | 0.00 | 44 | 1002.5 |
| 20260504191602 | 15 | 243 | 14.5 | 29.0 | 0.00 | 0.00 | 0.00 | 43 | 1002.2 |
| 20260504191058 | 16 | 226 | 16.1 | 20.9 | 0.00 | 0.00 | 0.00 | 42 | 1002.0 |
| 20260504190554 | 15 | 216 | 17.7 | 25.7 | 0.00 | 0.00 | 0.00 | 42 | 1001.9 |
| 20260504190050 | 15 | 249 | 9.7 | 24.1 | 0.00 | 0.00 | 0.00 | 40 | 1002.0 |
| 20260504185548 | 15 | 215 | 9.7 | 17.7 | 0.00 | 0.00 | 0.00 | 40 | 1002.0 |
| 20260504185044 | 16 | 193 | 4.8 | 17.7 | 0.00 | 0.00 | 0.00 | 40 | 1001.6 |
| 20260504184539 | 16 | 191 | 1.6 | 24.1 | 0.00 | 0.00 | 0.00 | 39 | 1001.7 |
| 20260504184035 | 16 | 210 | 9.7 | 22.5 | 0.00 | 0.00 | 0.00 | 40 | 1001.2 |
| 20260504183532 | 16 | 228 | 8.0 | 25.7 | 0.00 | 0.00 | 0.00 | 40 | 1001.6 |
| 20260504183030 | 16 | 182 | 16.1 | 29.0 | 0.00 | 0.00 | 0.00 | 39 | 1001.7 |
| 20260504182527 | 16 | 175 | 4.8 | 12.9 | 0.00 | 0.00 | 0.00 | 40 | 1001.5 |
| 20260504182024 | 16 | 238 | 8.0 | 24.1 | 0.00 | 0.00 | 0.00 | 39 | 1001.4 |
| 20260504181521 | 16 | 235 | 8.0 | 17.7 | 0.00 | 0.00 | 0.00 | 42 | 1001.2 |
| 20260504181020 | 16 | 243 | 9.7 | 20.9 | 0.00 | 0.00 | 0.00 | 41 | 1001.2 |
| 20260504180518 | 16 | 160 | 11.3 | 20.9 | 0.00 | 0.00 | 0.00 | 42 | 1001.2 |
| 20260504180017 | 16 | 116 | 8.0 | 24.1 | 0.00 | 0.00 | 0.00 | 42 | 1001.1 |
| 20260504175513 | 16 | 227 | 19.3 | 27.4 | 0.00 | 0.00 | 0.00 | 42 | 1001.1 |
| 20260504175010 | 16 | 151 | 11.3 | 24.1 | 0.00 | 0.00 | 0.00 | 43 | 1001.1 |
| 20260504174508 | 16 | 255 | 14.5 | 24.1 | 0.00 | 0.00 | 0.00 | 44 | 1001.1 |
| 20260504174005 | 16 | 237 | 6.4 | 17.7 | 0.00 | 0.00 | 0.00 | 44 | 1001.1 |
| 20260504173502 | 16 | 353 | 11.3 | 14.5 | 0.00 | 0.00 | 0.00 | 44 | 1001.1 |
| 20260504172959 | 15 | 214 | 8.0 | 25.7 | 0.00 | 0.00 | 0.00 | 45 | 1001.1 |
| 20260504172455 | 16 | 179 | 12.9 | 25.7 | 0.00 | 0.00 | 0.00 | 44 | 1000.9 |
| 20260504171952 | 16 | 262 | 11.3 | 35.4 | 0.00 | 0.00 | 0.00 | 44 | 1001.0 |
| 20260504171449 | 16 | 243 | 3.2 | 20.9 | 0.00 | 0.00 | 0.00 | 44 | 1000.9 |
| 20260504170946 | 16 | 160 | 12.9 | 25.7 | 0.00 | 0.00 | 0.00 | 43 | 1000.8 |
| 20260504170442 | 16 | 238 | 11.3 | 25.7 | 0.00 | 0.00 | 0.00 | 44 | 1000.9 |
| 20260504160401 | 16 | 236 | 14.5 | 29.0 | 0.00 | 0.00 | 0.00 | 43 | 1000.6 |
| 20260504150825 | 15 | 234 | 9.7 | 20.9 | 0.00 | 0.00 | 0.00 | 43 | 1000.2 |
| 20260504150322 | 15 | 173 | 16.1 | 22.5 | 0.00 | 0.00 | 0.00 | 43 | 1000.5 |
| 20260504141252 | 15 | 250 | 11.3 | 22.5 | 0.00 | 0.00 | 0.00 | 46 | 1000.1 |
| 20260504140749 | 15 | 214 | 16.1 | 22.5 | 0.00 | 0.00 | 0.00 | 47 | 1000.2 |
| 20260504140244 | 15 | 252 | 9.7 | 25.7 | 0.00 | 0.00 | 0.00 | 49 | 1000.0 |
| 20260504130713 | 15 | 214 | 6.4 | 25.7 | 0.00 | 0.00 | 0.00 | 50 | 999.1 |
| 20260504130209 | 15 | 234 | 9.7 | 16.1 | 0.00 | 0.00 | 0.00 | 50 | 999.2 |
| 20260504120133 | 15 | 201 | 17.7 | 27.4 | 0.00 | 0.00 | 0.00 | 47 | 998.6 |
| 20260504110600 | 15 | 152 | 4.8 | 11.3 | 0.00 | 0.00 | 0.00 | 46 | 998.1 |
| 20260504100522 | 13 | 160 | 3.2 | 3.2 | 0.00 | 0.00 | 0.00 | 51 | 999.0 |